Погода в Пензе

Погода в Пензе : погода сейчас, прогноз погоды и архив. Всё, что Вы хотите узнать о погоде в Пензе!

Хотите узнать прогноз погоды в Пензе? Тогда Вам сюда: Погода в Пензе

Поиск расширенной информации на нашем сайте:

Другие новости

Новости СМИ2

Главная страница сайта

Новости сайта

03.07.2017

Напоминаем, что на нашем специализированном сайте Метеоцентр.Азия вы можете получить высокодетализированные автоматические прогнозы погоды по пунктам России, СНГ и мира в авиационном формате (включающие направление и скорость ветра, видимость, явления погоды, количество и форму облачности, нижнюю и верхнюю границу облачности).

Рекомендуем: Нижегородская типография ОЛИВЕР: печать листовок.

Погода в Пензе - сегодня

Время (UTC), дата Ветер
(°,м/с) 
Видим.   Явления Облачность Т
(°С)
Тd
(°С)
f(%) Тe
(°С)
Pmin
(гПа)
dP
(гПа)
Po
(мм)
O2
(г/м3)
Тmin Tmax R s Состояние
почвы
18 17.11.17 290 (З) 10 км    10/10 720 м 
[Sc]
+1.4 -1 84 1025.8  0.4  753  302           
21 17.11.17 250 (З) 10 км    ясно 
-1.1 -1.8 95 -2  1025.7  -0.3  753  305           
00 18.11.17 280 (З) 10 км    10/0 средняя 
[Ac As]
-1.6 -2.7 92 -4  1025.4  -0.3  753  305           
03 18.11.17 290 (З) 10 км    10/0 средняя 
[Ac As]
-1.9 -2.4 96 -4  1025.4  0.1  753  306  -2.1         
06 18.11.17 250 (З) 10 км    9/0 средняя, верхняя 
[Ac As|Cs]
-1.6 -2.6 93 -4  1025  -0.5  752  305           
09 18.11.17 260 (З) 10 км    10/0 средняя, верхняя 
[Ac As|Cc]
+1.9 -1.5 78 -1  1024.6  752  301           
12 18.11.17 250 (З) 10 км  в посл. час снег  10/5 840 м средняя 
[Sc|Ac As]
+1.7 -1.6 79 1024  -0.7  752  301           
15 18.11.17 240 (ЮЗ) 10 км    9/9 720 м 
[Sc]
+1.1 -1.1 85 1024  752  302    +2.1  0.0     
18 18.11.17 240 (ЮЗ) 10 км    10/0 средняя 
[Ac und]
+1.1 -0.7 88 1023.9  0.1  752  302           
21 18.11.17 230 (ЮЗ) 10 км    10/10 600 м 
[Sc]
+0.1 -0.9 93 -1  1023.8  0.1  752  303           
00 19.11.17 190 (Ю) 10 км    3/0 средняя 
[Ac trans]
-1.2 -1.7 96 -2  1023.1  -0.8  751  304           
03 19.11.17 190 (Ю) 10 км    10/10 700 м 
[Sc]
-0.5 -2.1 89 -2  1022  -1  750  303  -1.5         
06 19.11.17 180 (Ю) 10 км    10/10 1140 м 
[Sc]
-0.4 -1.3 94 -1  1021.2  -0.8  750  303           
09 19.11.17 190 (Ю) 4000 м  слаб. снег  10/10 360 м 
[Frnb]
+1.6 -0.4 87 -1  1019.9  -1.1  749  300           
12 19.11.17 170 (Ю) н/о    н/о 
+1.5 +0.7 94 -1  1018.3  -1.6  748  299           
15 19.11.17 160 (Ю) 4000 м  в посл. час дождь  10/10 360 м 
[Frnb]
+1.7 +0.6 92 1017.1  -1.1  747  299    +1.8  0.4     
18 19.11.17 180 (Ю) 4000 м  слаб. дождь  10/10 420 м 
[Frnb]
+2.4 +1.4 93 1016.1  -0.9  746  298           
21 19.11.17 170 (Ю) 4000 м  слаб. морось{дождь}  10/10 270 м 
[St]
+1.8 +1.1 95 -1  1015.4  -0.7  746  298           
00 20.11.17 190 (Ю) 5-10{10}  10 км  {дождь, морось}  10/10 360 м 
[St]
+2.7 +1.7 93 1014.6  -0.7  745  297           
03 20.11.17 190 (Ю) 4{11}  4000 м  слаб. дождь  10/10 240 м 
[Frnb]
+3.1 +2.4 95 +1  1014.1  -0.4  745  296  +1.7       
06 20.11.17 190 (Ю) 4{10}  10 км  {дождь}  10/10 240 м 
[Frnb]
+4.1 +3.3 95 +2  1014.5  0.5  745  295           
09 20.11.17 190 (Ю) 10 км    10/10 210 м 
[Frnb]
+5 +3.7 91 +3  1014.4  0.1  745  294           
12 20.11.17 160 (Ю) 4000 м  в посл. час морось  10/10 300 м 
[St]
+5 +4 93 +4  1014.6  0.2  745  294           
15 20.11.17 160 (Ю) 4000 м  в посл. час морось  10/10 210 м 
[St]
+4.2 +3.8 97 +3  1014.4  -0.2  745  295    +5.5  0.0     
18 20.11.17 160 (Ю) 4000 м  в посл. час морось  10/10 210 м 
[St]
+4.4 +4 97 +3  1013.2  -1.1  744  294           
Время (UTC), дата Ветер
(°,м/с) 
Видим.   Явления Облачность Т
(°С)
Тd
(°С)
f(%) Тe
(°С)
Pmin
(гПа)
dP
(гПа)
Po
(мм)
O2
(г/м3)
Тmin Tmax R s Состояние
почвы

Для получения пояснительной информации подведите курсор к названию столбца.

ПОГОДА в Пензе - архив

Всё, что Вы хотите узнать о погоде в Пензе - удобно и подробно!

Выберите нужную дату (начиная с 1 января 2015* года) и нажмите кнопку "Найти".
Будут отображены архивные сводки погоды по пункту Пенза, начиная с указанной даты.


Отображать данные в формате CSV (для использования в таблицах Excel)


Внимание! Наш архив погоды предназначен исключительно для личного некоммерческого использования в познавательных целях. Если Вам необходимы официальные справки о состоянии погоды (для производственных, юридических, коммерческих и т.п. целей), обращайтесь в органы Росгидромета.

*Примечание: данная дата относится к архиву по метеостанциям СССР (Россия, СНГ, Балтия).
Архив по метеостанциям Зарубежной Европы и Азии (кроме Китая) хранится 10 дней, по другим регионам земного шара (Китай, Африка, Америка, Австралия, Океания) - 1 день.

Пенза - район местоположения метеостанции


Название, широта, долгота, высота метеостанции:
Пенза (Терновка) 53.1°ш. 45°д. 177 м над ур. моря [Российская Федерация]

Дополнительная информация

В oтличие oт бoльшинства пoгoдных сайтoв мы публикуем пoдрoбную метеoинфoрмацию в детальнoм прoфессиoнальнoм фoрмате.

Характеристики температуры и влажнoсти вoздуха измеряются на высoте 2 м в тени вдали oт зданий и деревьев.
Скoрoсть ветра измеряется на высoте 10 м (на урoвне рoста челoвека скoрoсть ветра ниже в 1.5-2 раза). Если метеoстанция нахoдится в гoрoде или в лесу, тo скoрoсть ветра занижена на 2-4 м/с пo сравнению с oткрытым местoм. Скoрoсть ветра над акватoриями крупных рек и oзёр, а также на вершинах хoлмoв на 2-5 м/с выше, чем в oбычных услoвиях.
Атмoсфернoе давление в разных тoчках местнoсти мoжет значительнo oтличаться oт давления на метеoстанции, в зависимoсти oт услoвий рельефа (при пoдъёме на 10 м давление пoнижается примернo на 1 мм рт.ст.).